JA1RBY-13 Weather Reports


time (UTC)temp
C
wind
direction
speed
KPH
gust
KPH
rain 1hr
cm
rain 24hr
cm
rain mn
cm
humidity
%
barometer
mb
20260504184831 13 13 4.8 11.3 0.00 0.38 0.00 37 1014.6
20260504183333 13 45 4.8 8.0 0.00 0.43 0.00 39 1014.3
20260504181831 13 31 8.0 11.3 0.00 0.43 0.00 40 1014.0
20260504180331 13 26 4.8 8.0 0.00 0.51 0.00 41 1013.7
20260504173331 13 26 1.6 3.2 0.00 0.74 0.00 41 1013.0
20260504171832 13 31 1.6 3.2 0.00 0.76 0.00 41 1012.7
20260504170331 13 40 1.6 4.8 0.00 0.81 0.00 42 1012.2
20260504160332 14 14 9.7 17.7 0.00 0.97 0.00 42 1010.7
20260504150331 15 18 4.8 12.9 0.00 1.12 0.00 45 1009.4
20260504140331 16 46 1.6 6.4 0.00 1.12 1.12 44 1008.3
20260504130332 17 37 3.2 4.8 0.00 1.12 1.12 41 1006.7
20260504081830 22 250 27.4 32.2 0.00 1.12 1.12 35 997.4
20260504080331 23 258 22.5 29.0 0.00 1.12 1.12 35 997.3
20260504070330 24 261 30.6 45.1 0.00 1.12 1.12 33 996.4
20260504050330 27 272 25.7 43.5 0.00 1.12 1.12 41 996.1
20260504044830 27 242 24.1 35.4 0.00 1.12 1.12 40 996.2
20260504043331 28 265 11.3 19.3 0.00 1.12 1.12 40 996.2
20260504041830 28 262 20.9 38.6 0.00 1.12 1.12 39 996.2
20260504040330 28 244 27.4 35.4 0.00 1.12 1.12 38 996.2
20260504034831 28 254 25.7 33.8 0.00 1.12 1.12 38 996.1
20260504033330 27 257 20.9 29.0 0.00 1.12 1.12 40 996.2
20260504030330 29 258 19.3 30.6 0.00 1.12 1.12 40 996.4
20260504024830 29 248 19.3 35.4 0.00 1.12 1.12 39 996.7
20260504023331 28 266 8.0 19.3 0.00 1.12 1.12 42 996.9
20260504021830 28 249 14.5 30.6 0.00 1.12 1.12 43 997.0
20260504020329 28 267 17.7 27.4 0.00 1.12 1.12 44 997.3
20260504014831 28 276 12.9 17.7 0.00 1.12 1.12 46 997.3
20260504013331 28 242 16.1 27.4 0.00 1.12 1.12 46 997.4
20260504010330 27 263 17.7 25.7 0.00 1.12 1.12 50 997.3
20260504004830 27 251 19.3 32.2 0.00 1.12 1.12 50 997.2
20260504001830 27 272 19.3 46.7 0.00 1.12 1.12 53 996.9
20260504000330 27 266 16.1 27.4 0.00 1.12 1.12 54 996.9
20260503234829 25 244 27.4 48.3 0.00 1.12 1.12 57 996.6
20260503230330 23 235 25.7 33.8 0.00 1.12 1.12 62 996.5
20260503224829 22 256 27.4 37.0 0.00 1.12 1.12 65 996.8
20260503223331 22 254 29.0 37.0 0.00 1.12 1.12 67 996.4
20260503221830 22 219 24.1 38.6 0.00 1.12 1.12 69 996.2
20260503214830 23 275 35.4 49.9 0.00 1.12 1.12 70 996.5
20260503211829 21 247 40.2 49.9 0.05 1.12 1.12 83 996.9
20260503210331 20 252 30.6 41.8 0.10 1.12 1.12 86 997.4
20260503204830 20 238 25.7 37.0 0.23 1.12 1.12 86 997.3
20260503203331 20 236 22.5 33.8 0.25 1.09 1.09 86 997.8
20260503201830 19 219 11.3 20.9 0.33 1.09 1.09 85 998.0
20260503200331 19 176 9.7 17.7 0.25 1.02 1.02 84 998.5
20260503194830 19 226 17.7 25.7 0.15 0.89 0.89 84 997.7
20260503191829 19 235 30.6 41.8 0.08 0.76 0.76 84 998.1
20260503190331 18 223 22.5 27.4 0.15 0.76 0.76 83 997.9